STARLINK-11443, 62512

Orbit data source: Space-Track

STARLINK-11443, 62512 is a payload satellite owned by SpaceX/Seattle (US) in LEO that was launched on Wed, 08 Jan 2025 UTC via an FALCON 9 launch vehicle from the Air Force Eastern Test Range (AFETR). Payload-class satellites include a variety of spacecraft equipped with specific instruments for various scientific and technological missions. These include communications satellites like Starlink; space stations such as the ISS; scientific satellites like the Hubble; Earth observation satellites from companies like Planet Labs, Umbra, and HawkEye 360; GPS; miniature CubeSats for education and research; and military/defense satellites.

Loading next visibility...
Identifier
62512, 2025-004B
Orbit
LEO
Country
Flag of USUS
Related business
Manufacturer
SpaceX/Seattle
Mission
Operational Commercial Communications
Bus & Motor
STARLINK V2MD, Unknown motor
Mass
960 kg wet, ~910 kg dry
Launch date (UTC)
2025-01-08 (1 year ago)
Launch vehicle
FALCON 9
Launch site
Air Force Eastern Test Range (AFETR)
Object type
Payload
Rocket body
Debris
Shape & HBR
Box + 2 Pan, 18.1 m
Radar Cross Section
36.964 m², Large (>1 m²)

Expand to show TLE details & history
Last TLE update: 22 hours ago

TLE from 22 hours ago
0 STARLINK-11443
1 62512U 25004B   26171.05746482  .00244016  00000-0  18364-2 0  9991
2 62512  43.0010 174.1111 0002347 240.9876 119.0757 15.71013719 83303
Epoch: 2026-06-20T01:22Z
TLE epoch observation values (Epoch: 2026-06-20T01:22:44.960Z)
Latitude
0.00001°
Longitude
-114.85378°
Altitude
356.538 km
Speed
7.697 km/s
True Right ascension
11h 36m 26s
True Declination
0° 00' 00"
Sunlit
Object was in daylight at epoch
Visualization orbit readout
Latitude
Unknown
Longitude
Unknown
Altitude
Unknown
Speed
Unknown
Apparent Right ascension
Unknown
Apparent Declination
Unknown
Sunlit
N/A
Visualization observer readout
Local Sidereal Time
10:18:49
Azimuth
Unknown
Elevation
Unknown
Doppler factor
Unknown
Orbital elements
Apogee altitude
359.561 km
Perigee altitude
356.399 km
Semi-major axis
6,736.117 km
Eccentricity
0.00023
Inclination
43.001°
RAAN
174.1111°
Arg. of periapsis
240.9876°
True anomaly
119.0992°
Mean anomaly
119.0757°
Eccentric anomaly
119.08745°
Mean motion
3.9258 °/min
Orbital period
91.7 mins
BSTAR
0.0018364
Loading maneuver chart data...
Computing Atmospheric mass density...
Loading historical data...
Loading historical data...
Loading historical data...
Loading historical data...
Loading historical data...
Loading historical data...
Loading historical data...

Documentation

Showing up to 5 results
|